User: anonymous   Login
Location: Unspecified
(0.0000°N, 0.0000°E)
Time: 14:09:38
(UTC+00:00)
Language:

CANX 3B (BRITE-ASRA) - Orbit

View from above orbital plane
View from above orbital plane
View from above satellite
View from above satellite

Ground track
Ground track

The orbit data is extracted from the following two-line orbital elements,

1 39091U 13009F   19047.83585546 +.00000038 +00000-0 +28622-4 0  9995
2 39091 098.4969 254.9639 0009551 301.9188 058.1068 14.35099610312920
Epoch (UTC): 16 February 2019 20:03:37
Eccentricity: 0.0009551
inclination: 98.4969°
perigee height: 768 km
apogee height: 781 km
right ascension of ascending node: 254.9639°
argument of perigee: 301.9188°
revolutions per day: 14.35099610
mean anomaly at epoch: 58.1068°
orbit number at epoch: 31292

The dashed part of the orbit path shows where the satellite is in the earth's shadow,  

DLR